sat.trackr.live / text

‹ back to catalog

STARLINK-34640

NORAD 65092 · 2025-167Q

PAYLOAD ACTIVE UNKNOWN

§ Identity

Operator
Country
US
Launch date
2025-08-04
Launch site
AFETR
Launch vehicle
Mass (kg)
RCS (m²)

Purposes: comms

External: N2YO · Heavens-Above · Gunter

§ Orbital elements

Epoch: 2026-05-25T02:01:12.963648Z

Period
94.10 min
Inclination
53.1602°
Eccentricity
0.0001055
Mean motion
15.30208323 rev/d
Perigee alt
474.5 km
Apogee alt
475.9 km
Semi-major
6,853.3 km
B*
9.7408e-4
RAAN
31.9914°
Arg perigee
78.3387°
Mean anomaly
281.7732°
Rev number
4,517

§ Raw data

STARLINK-346401 65092U 25167Q   26145.08417782  .00028609  00000+0  97408-3 0  99932 65092  53.1602  31.9914 0001055  78.3387 281.7732 15.30208323 45179

JSON: /api/v1/satellites/65092 · /tle

For live sub-satellite position, see the globe view (requires WebGL).

§ Visibility from observer

Set your observer location to see the next 7 days of passes ≥ 10°. The values pass through the URL so the page stays shareable.

No JS? Fill the form by hand. The geolocation button needs JavaScript.